Flag for Germany Weather past 2 weeks in Löhne, North Rhine-Westphalia, Germany

Now
55 °F

Cool.


Feels Like: 55 °F
Forecast: 40 / 66 °F
Wind: 1 mph from West

Location: Bueckeburg

Current Time: May 23, 2015 at 7:53:16 AM

Latest Report: May 23, 2015 at 7:20 AM


Visibility: N/A

Pressure: 30.15 "Hg

Humidity: 82%

Dew point: 50 °F

Location of LöhneLocation

Historic Weather in Löhne — Graph

°F

Löhne temperature yesterday

Maximum temperature yesterday: 66 °F (at 5:20 PM)
Minimum temperature yesterday: 43 °F (at 5:20 AM)
Average temperature yesterday: 57 °F

Past Weeks' High & Low Weather Summary

 TemperatureHumidityPressure
High77 °F (May 12, 12:20 PM)94% (May 16, 3:20 PM)30.33 "Hg (May 16, 3:20 PM)
Low37 °F (May 16, 5:20 AM)39% (May 10, 4:20 PM)29.59 "Hg (May 18, 8:20 PM)
Average55 °F64%30.05 "Hg
* Reported May 8 6:20 AM — May 23 6:20 AM, Löhne, Weather by CustomWeather, © 2015

Note: Actual official high and low records may vary slightly from our data, if they occured in-between our weather recording intervals... More about our weather records

Advertising

Löhne weather history for previous 24 hours

 ConditionsComfort  
Time TempWeatherWind HumidityBarometerVisibility
6:20 AM
Sat, May 23
55 °FCool.1 mph77%30.12 "HgN/A
5:20 AM55 °FCool.No wind77%30.12 "HgN/A
4:20 AM55 °FCool.1 mph72%30.15 "HgN/A
3:20 AM55 °FCool.3 mph72%30.15 "HgN/A
2:20 AM57 °FCool.1 mph67%30.15 "HgN/A
1:20 AM57 °FCool.1 mph67%30.18 "HgN/A
12:20 AM57 °FCool.2 mph67%30.18 "HgN/A
11:20 PM
Fri, May 22
57 °FCool.3 mph67%30.18 "HgN/A
10:20 PM57 °FCool.3 mph67%30.18 "HgN/A
9:20 PM59 °FCool.3 mph68%30.18 "HgN/A
8:20 PM63 °FMild.3 mph56%30.18 "HgN/A
7:20 PM64 °FMild.5 mph52%30.18 "HgN/A
6:20 PM64 °FMild.3 mph46%30.18 "HgN/A
5:20 PM66 °FMild.6 mph46%30.21 "HgN/A
4:20 PM64 °FMild.7 mph49%30.21 "HgN/A
3:20 PM64 °FMild.6 mph46%30.24 "HgN/A
2:20 PM64 °FMild.7 mph46%30.24 "HgN/A
1:20 PM64 °FMild.7 mph49%30.27 "HgN/A
12:20 PM63 °FMild.5 mph49%30.30 "HgN/A
11:51 AM61 °FBroken clouds.7 mph52%30.30 "HgN/A
11:20 AM61 °FSmoke.N/A52%N/AN/A
10:20 AM59 °FPartly sunny.5 mph55%30.30 "HgN/A
9:20 AM57 °FPartly sunny.3 mph59%30.33 "HgN/A
8:20 AM54 °FPartly sunny.6 mph72%30.33 "HgN/A
7:20 AM50 °FPartly sunny.3 mph82%30.30 "HgN/A
Weather by CustomWeather, © 2015

See weather overviewHow to use our weather pages